Content
SEND FEEDBACK

Daily
Averages
Monthly
Summary
Mauritania

PORT-ETIENNE, MAURITANIA


Home > Africa > Mauritania
Elevation: 10 feet     Latitude: 20 54N     Longitude: 017 06W

WEATHER
 
SELECT A DAY
Number of Records: 118,144;   Date Range: 7/1/96 - 9/15/14
 
SHARE

PRINT THIS DATA

[ ← Previous Day ]
WEATHER ALMANAC - JANUARY 3, 2013
[ Next Day → ]
[ °C ]   °F
Weather ElementAverageHighLow
Temperature66 °F83 °F (3:00 pm)57.2 °F (7:00 am)
Dewpoint47.6 °F61 °F (9:00 pm)24.8 °F (3:00 pm)
Humidity57 %88 % (12:00 am)7 % (3:00 pm)
Barometer30.11 in30.17 in (12:00 pm)30.06 in (6:00 am)
Wind Speed10.7 mph16.1 mph (10:00 am)
Weather ElementAverage
Visibility5 mi
Wind DirectionSSE (151.5 °)

Weather ElementTotal
Precipitation---
Cooling Degree Days5.1 (Base 65)
Growing Degree Days20.1 (Base 50)
Averaged from 27 records on January 3, 2013
WEATHER CONDITIONS BREAKOUT
WIND DIRECTION BREAKOUT
WEATHER BY HOUR - JANUARY 3, 2013
[ °C ]   °F
Local TimeTemperatureDewpointHumidityBarometerVisibilityWind DirectionWind SpeedGust SpeedPrecipitationEventsConditions
12:00 AM60.8 °F57.2 °F88 %30.12 in5.0 miNorth (360°)13.8 mph
1:00 AM60.8 °F55.4 °F82 %30.09 in5.0 miNorth (360°)13.8 mph
2:00 AM60.8 °F55.4 °F82 %30.09 in5.0 miNNE (20°)15.0 mph
3:00 AM61.0 °F55.0 °F76 %30.11 in5.0 miNorth (10°)13.8 mphClear
6:00 AM59.0 °F51.0 °F66 %30.11 in5.0 miNNE (30°)11.5 mphClear
6:00 AM59.0 °F48.2 °F67 %30.06 in5.0 miNE (40°)11.5 mph
7:00 AM57.2 °F48.2 °F72 %30.09 in5.0 miNNE (20°)5.8 mph
8:00 AM59.0 °F46.4 °F63 %30.12 in5.0 miNNE (20°)11.5 mph
9:00 AM60.8 °F46.4 °F59 %30.12 in5.0 miNNE (30°)12.7 mph
10:00 AM62.6 °F48.2 °F59 %30.15 in5.0 miNE (40°)16.1 mph
11:00 AM64.4 °F44.6 °F49 %30.15 in5.0 miNNE (30°)11.5 mph
12:00 PM67.0 °F44.0 °F33 %30.17 in5.0 miNNE (20°)9.2 mphClear
12:00 PM68.0 °F39.2 °F35 %30.15 in5.0 miNNE (30°)8.1 mph
1:00 PM71.6 °F33.8 °F25 %30.12 in5.0 miNE (40°)9.2 mph
2:00 PM75.2 °F28.4 °F18 %30.09 in5.0 miNE (50°)5.8 mph
3:00 PM83.0 °F30.0 °F7 %30.07 in5.0 miEast (80°)6.9 mphClear
3:00 PM78.8 °F24.8 °F14 %30.09 in5.0 miVariable3.5 mph
4:00 PM78.8 °F24.8 °F14 %30.06 in5.0 miVariable2.3 mph
5:00 PM71.6 °F48.2 °F43 %30.09 in5.0 miNW (310°)9.2 mph
6:00 PM68.0 °F55.4 °F64 %30.09 in5.0 miNW (310°)12.7 mph
6:00 PM69.0 °F56.0 °F55 %30.11 in5.0 miNW (310°)12.7 mphClear
7:00 PM66.2 °F59.0 °F78 %30.09 in5.0 miNW (320°)12.7 mph
8:00 PM64.4 °F59.0 °F83 %30.12 in5.0 miNW (310°)12.7 mph
9:00 PM64.0 °F61.0 °F85 %30.17 in5.0 miNW (320°)12.7 mphClear
9:00 PM64.4 °F59.0 °F83 %30.15 in5.0 miNNW (330°)12.7 mph
10:00 PM64.4 °F53.6 °F68 %30.15 in5.0 miNorth (350°)11.5 mph
11:00 PM62.6 °F53.6 °F72 %30.15 in5.0 miNorth (350°)10.4 mph
Hourly data recorded from GQPP, located miles away from Port-Etienne, Mauritania







STORIES FROM OUR PARTNERS